Location: Cartignies
(50.0929°N, 3.8447°E)
Time: 14:13:11
(UTC+00:00)

USA 32 - Pass Details

Date: 12 January 2026
Orbit: 774 x 780 km, 85.0° (Epoch: 15 February)

Event Time Altitude Azimuth Distance (km) Brightness Sun altitude
Rises 16:33:40 0° 358° (N) 3,277 7.0 -4.6°
Reaches altitude 10° 16:36:11 10° 6° (N) 2,344 6.2 -4.9°
Maximum altitude 16:41:07 40° 76° (ENE) 1,139 4.5 -5.6°
Drops below altitude 10° 16:46:01 10° 146° (SE) 2,324 6.4 -6.3°
Sets 16:48:29 0° 153° (SSE) 3,245 7.2 -6.7°
